Location: Poughquag
(41.6090°N, 73.6820°W)
Time: 14:51:57
(UTC-04:00)

Explorer 11/Cluster Stage 4 - Pass Details

Date: 01 June 2020
Orbit: 467 x 1259 km, 28.8° (Epoch: 05 July)

Event Time Altitude Azimuth Distance (km) Brightness Sun altitude
Rises 10:20:34 0° 258° (WSW) 3,933 9.9 52.7°
Reaches altitude 10° 10:23:52 10° 245° (WSW) 3,071 9.5 53.3°
Maximum altitude 10:29:45 24° 196° (SSW) 2,317 9.3 54.4°
Drops below altitude 10° 10:35:56 10° 147° (SSE) 3,226 10.3 55.4°
Sets 10:39:30 0° 134° (SE) 4,174 10.8 56.0°
